This is the latest recevied weather packets stored in our database for station/object N3FWE. If no packets are shown the sender has not sent any weather packets the latest 10 day(s).
| Time | Temp. | Humidity | Pressure | Rain* | Wind** | Luminosity | Snow |
|---|---|---|---|---|---|---|---|
| 1777561212 | 14.44° C | 68% | 1010.2 hPa | 0 mm | - | - | - |
| 1777560612 | 14.44° C | 67% | 1010.3 hPa | 0 mm | - | - | - |
| 1777560012 | 14.44° C | 66% | 1010.2 hPa | 0 mm | - | - | - |
| 1777559412 | 15° C | 66% | 1010 hPa | 0 mm | - | - | - |
| 1777558812 | 15° C | 68% | 1009.9 hPa | 0 mm | - | - | - |
| 1777558212 | 15.56° C | 70% | 1009.7 hPa | 0 mm | - | - | - |
| 1777557612 | 15° C | 70% | 1009.5 hPa | 0 mm | - | - | - |
| 1777557012 | 14.44° C | 74% | 1009.5 hPa | 0 mm | - | - | - |
| 1777556412 | 13.89° C | 76% | 1009.4 hPa | 0 mm | - | - | - |
| 1777555812 | 13.89° C | 81% | 1009.5 hPa | 0 mm | - | - | - |
| 1777555212 | 13.33° C | 84% | 1009.5 hPa | 0 mm | - | - | - |
| 1777554611 | 12.78° C | 84% | 1009.5 hPa | 0 mm | - | - | - |
| 1777554012 | 12.22° C | 89% | 1009.5 hPa | 0 mm | - | - | - |
| 1777553411 | 11.11° C | 91% | 1009.4 hPa | 0 mm | - | - | - |
| 1777552812 | 11.11° C | 91% | 1009.3 hPa | 0 mm | - | - | - |
| 1777552212 | 11.11° C | 93% | 1009.4 hPa | 0 mm | - | - | - |
| 1777551612 | 11.11° C | 93% | 1009.5 hPa | 0 mm | - | - | - |
| 1777551011 | 11.11° C | 94% | 1009.5 hPa | 0 mm | - | - | - |
| 1777550413 | 11.11° C | 95% | 1009.4 hPa | 0 mm | - | - | - |
| 1777549812 | 11.11° C | 95% | 1009.5 hPa | 0 mm | - | - | - |
| 1777549211 | 10.56° C | 95% | 1009.4 hPa | 0 mm | - | - | - |
| 1777548612 | 10.56° C | 95% | 1009.3 hPa | 0 mm | - | - | - |
| 1777548011 | 10° C | 95% | 1009.2 hPa | 0 mm | - | - | - |
| 1777547412 | 10° C | 95% | 1009.3 hPa | 0 mm | - | - | - |
| 1777546812 | 10° C | 95% | 1009.2 hPa | 0 mm | - | - | - |
* Rain latest hour (hover to see other rain measurements)
** Current wind speed in m/s (hover to see current wind gust speed)